This is the latest recevied weather packets stored in our database for station/object KC3SOZ. If no packets are shown the sender has not sent any weather packets the latest 10 day(s).
| Time | Temp. | Humidity | Pressure | Rain* | Wind** | Luminosity | Snow |
|---|---|---|---|---|---|---|---|
| 1778106534 | 16.67° C | 99% | 1008.7 hPa | 0 mm | - | 13 W/m² | - |
| 1778106230 | 16.67° C | 99% | 1009 hPa | 0 mm | - | 22 W/m² | - |
| 1778105928 | 16.67° C | 99% | 1009 hPa | 0 mm | - | 30 W/m² | - |
| 1778105625 | 16.67° C | 99% | 1008.8 hPa | 0 mm | - | 38 W/m² | - |
| 1778105323 | 16.67° C | 99% | 1008.6 hPa | 0 mm | - | 51 W/m² | - |
| 1778105018 | 16.67° C | 99% | 1008.4 hPa | 0 mm | - | 43 W/m² | - |
| 1778104715 | 16.67° C | 99% | 1008.4 hPa | 0 mm | - | 75 W/m² | - |
| 1778104411 | 16.67° C | 99% | 1008.4 hPa | 0 mm | - | 111 W/m² | - |
| 1778104107 | 16.67° C | 99% | 1008.4 hPa | 0 mm | - | 110 W/m² | - |
| 1778103804 | 16.67° C | 99% | 1008.2 hPa | 0 mm | - | 88 W/m² | - |
| 1778103502 | 16.67° C | 99% | 1008.2 hPa | 0 mm | - | 64 W/m² | - |
| 1778103199 | 16.67° C | 99% | 1008.2 hPa | 0 mm | - | 33 W/m² | - |
| 1778102896 | 16.67° C | 99% | 1008.1 hPa | 1.78 mm | - | 20 W/m² | - |
| 1778102592 | 17.22° C | 99% | 1008 hPa | 3.05 mm | - | 13 W/m² | - |
| 1778102287 | 17.22° C | 97% | 1007.9 hPa | 1.27 mm | - | 15 W/m² | - |
| 1778101984 | 17.78° C | 96% | 1007.8 hPa | 0 mm | - | 14 W/m² | - |
| 1778101681 | 17.78° C | 95% | 1007.8 hPa | 0 mm | - | 25 W/m² | - |
| 1778101378 | 17.78° C | 95% | 1007.7 hPa | 0 mm | - | 28 W/m² | - |
| 1778101075 | 17.78° C | 94% | 1007.6 hPa | 0 mm | - | 38 W/m² | - |
| 1778100770 | 17.78° C | 94% | 1007.6 hPa | 0 mm | - | 96 W/m² | - |
| 1778100467 | 17.78° C | 93% | 1007.6 hPa | 0 mm | - | 98 W/m² | - |
| 1778100165 | 17.78° C | 93% | 1007.4 hPa | 0 mm | - | 81 W/m² | - |
| 1778099863 | 17.78° C | 93% | 1007.5 hPa | 0 mm | - | 87 W/m² | - |
| 1778099560 | 18.33° C | 92% | 1007.4 hPa | 0 mm | - | 141 W/m² | - |
| 1778099257 | 18.33° C | 92% | 1007.5 hPa | 0 mm | - | 226 W/m² | - |
* Rain latest hour (hover to see other rain measurements)
** Current wind speed in m/s (hover to see current wind gust speed)